SCP
-0 0 0 -0 0 -0 -0 -0 -0 -0 0 0 0 0 -0 -0 -0 -0 -0 -0 -0 -0 0 0 0 0 0 0 0 0 0 0 0 0 0 0 0 0 0 0 0 0 0
-0 0 -0 -0 0 -0 -0 -0 -0 -0 -0 -0 -0 -0 -0 -0 -0 -0 -0 -0 -0 -0 -0 0 0 0 0 0 0 0 0 0 0 0 0 0 0 0 0 0 0 0 0
-0 0 0 -0 0 0 -0 -0 -0 -0 -0 -0 -0 -0 -0 -0 -0 -0 0 0 0 0 0 0 0 0 0 0 0 0 0 0 0 0 -0 -0 0 0 0 0 0 0 0
-0 0 0 -0 0 0 -0 -0 -0 -0 -0 -0 -0 -0 -0 0 0 0 0 0 0 0 0 0 0 0 0 0 0 0 0 0 0 0 -0 -0 -0 0 0 0 0 0 0
0 -0 0 -0 0 0 0 -0 -0 -0 -0 -0 -0 0 0 0 0 0 0 0 0 0 0 0 0 0 0 0 0 0 0 0 0 0 0 -0 0 0 0 0 0 0 0
0 -0 -0 -0 0 0 0 -0 -0 -0 -0 -0 -0 0 0 0 0 0 0 0 0 0 0 0 0 0 0 0 0 0 0 0 0 0 0 0 0 0 0 0 0 0 0
0 0 -0 -0 0 0 0 -0 -0 -0 -0 -0 -0 0 0 0 0 0 0 0 0 0 0 0 0 0 0 0 0 0 0 0 0 0 0 0 0 0 0 0 0 0 0
0 0 -0 0 -0 -0 0 -0 -0 -0 -0 -0 -0 0 0 0 0 0 0 0 0 0 0 0 0 0 0 0 0 0 0 0 0 0 0 0 0 0 0 0 0 0 0
0 0 0 0 -0 -0 -0 -0 -0 -0 -0 -0 -0 -0 0 0 0 0 0 0 0 0 0 0 0 0 0 0 0 0 0 0 0 0 0 0 0 0 0 0 0 0 0
0 0 0 0 -0 -0 -0 0 -0 -0 -0 -0 -0 -0 0 0 0 0 0 0 0 0 0 0 0 0 0 0 0 0 0 0 0 0 0 0 0 0 0 0 0 0 0
0 0 0 0 0 -0 -0 -0 0 -0 -0 -0 -0 -0 0 0 0 0 0 0 0 0 0 1 1 0 0 0 0 0 0 0 0 0 0 0 0 0 0 0 0 0 0
0 0 0 0 0 0 -0 -0 0 0 0 0 0 0 0 0 0 0 0 0 0 0 0 1 1 1 0 0 0 0 0 0 0 0 0 0 0 0 0 0 0 0 0
0 0 0 0 0 0 0 0 0 0 0 0 0 0 0 0 0 0 0 0 0 0 0 0 1 1 0 0 0 0 0 0 0 0 0 0 0 0 0 0 0 0 0
0 0 0 0 0 0 0 0 0 0 0 0 0 0 0 0 0 0 0 0 0 0 0 0 0 0 0 0 0 0 0 0 0 0 0 0 0 0 0 0 0 0 0
0 0 0 0 0 0 0 0 0 0 0 0 0 0 0 0 0 0 0 0 0 0 0 0 0 0 0 0 0 0 0 0 0 0 0 0 0 0 0 0 0 0 0
0 0 0 0 0 0 0 0 0 0 0 0 0 0 0 0 0 0 0 0 0 0 0 0 0 0 0 0 0 0 0 0 0 0 0 0 0 0 0 0 0 -0 -0
0 0 1 1 0 0 0 0 0 0 0 0 0 0 0 0 0 0 0 0 0 0 0 0 0 0 0 0 0 0 0 0 0 0 0 0 0 0 0 0 0 0 0
0 0 1 2 1 0 0 0 0 0 0 0 0 0 0 0 0 0 0 0 0 0 0 0 0 0 0 0 0 0 0 0 0 0 0 0 0 0 0 0 0 0 0
0 0 1 2 1 0 0 0 0 0 0 0 0 0 0 0 0 0 0 0 0 0 0 0 0 0 0 0 0 0 0 0 0 0 0 0 0 0 0 0 0 0 0
0 0 0 1 1 1 1 1 1 1 1 0 0 0 0 0 0 0 0 0 0 0 0 0 0 0 0 0 0 0 0 0 0 0 0 0 0 0 0 0 0 0 0
0 0 0 0 0 0 1 2 2 1 1 1 1 1 1 1 0 0 0 0 0 0 0 0 0 0 0 0 0 0 0 0 0 0 0 0 0 0 0 0 0 0 0
0 0 0 0 0 0 1 2 2 2 2 2 1 1 1 1 1 1 0 0 0 0 0 0 0 0 0 0 0 0 0 0 0 0 0 0 0 0 0 0 0 0 0
0 0 0 0 0 0 1 2 0 1 0 1 1 1 1 1 2 2 1 0 0 0 0 0 0 0 0 0 0 0 0 0 0 0 0 0 0 0 0 0 0 0 0
0 0 0 0 0 0 1 2 2 2 3 1 1 1 1 0 1 3 2 1 1 1 0 0 0 0 0 0 0 0 0 0 0 0 0 0 0 0 0 0 0 0 0
0 0 0 0 0 0 2 2 2 0 0 0 0 0 0 0 1 2 2 1 1 1 0 0 0 0 0 0 0 0 0 0 0 0 0 0 0 0 0 0 0 0 0
0 0 0 0 0 0 1 1 1 1 0 0 0 0 0 1 1 2 1 1 1 1 1 0 0 0 0 0 0 0 0 0 0 0 0 0 0 0 0 0 0 0 0
Wind_Speed_500mb
63 61 55 55 54 54 56 56 54 51 48 46 44 44 41 38 35 32 30 28 25 23 21 20 18 17 15 12 10 7 5 2 2 2 4 6 7 7 5 2 2 3 4
73 68 60 59 61 59 60 60 59 57 54 51 48 45 42 38 34 31 28 26 24 22 19 18 17 17 16 15 14 12 8 7 8 7 8 9 9 6 4 3 2 4 4
77 74 67 66 67 65 62 60 58 56 54 50 46 43 40 36 32 29 25 22 20 17 15 15 14 14 14 13 13 12 10 10 12 13 13 13 12 10 6 3 5 5 4
81 80 73 70 70 66 62 60 57 54 52 49 44 38 34 31 28 26 23 20 17 14 13 12 11 11 11 10 10 10 9 11 14 12 11 13 12 12 10 8 5 7 5
84 81 78 73 72 68 64 60 57 53 48 45 41 38 34 30 26 22 20 18 15 12 10 9 7 7 8 7 8 9 9 10 8 7 5 6 8 12 14 11 12 9 9
87 83 80 76 75 71 66 60 55 50 47 43 40 36 32 29 26 22 19 16 14 12 11 8 6 6 5 6 6 5 6 11 12 9 3 4 1 6 11 14 16 10 12
90 85 80 77 77 73 67 60 54 49 45 42 39 36 32 29 26 24 21 19 17 16 13 10 10 9 8 5 3 3 6 12 19 16 13 6 5 3 9 15 17 15 10
90 86 82 79 77 73 67 59 54 48 44 41 37 34 31 29 27 25 24 23 21 19 19 17 16 15 15 12 7 6 7 10 19 22 20 10 7 2 5 12 18 19 12
87 85 84 81 78 74 68 59 52 47 43 39 36 34 32 30 29 28 27 28 26 24 25 23 22 22 22 20 15 14 11 10 14 16 21 17 12 9 6 11 19 22 18
89 84 85 82 80 77 70 61 54 47 43 39 36 35 34 32 33 32 32 33 32 31 30 30 29 29 29 26 24 21 18 13 15 16 18 19 12 10 10 12 16 23 20
86 83 84 82 81 76 70 65 60 52 46 42 39 38 39 39 37 37 37 37 38 37 36 36 35 35 35 33 32 28 25 17 20 19 15 14 11 12 15 15 15 20 20
90 88 86 84 80 76 72 68 64 58 54 49 45 44 42 41 39 42 43 43 42 41 40 43 42 43 43 40 38 36 31 23 23 22 19 15 13 17 18 18 15 17 19
90 88 85 80 76 74 72 68 67 62 58 51 48 46 43 43 45 48 49 49 46 44 44 48 47 50 49 46 43 41 36 31 27 25 25 20 19 26 26 22 18 19 18
84 84 84 82 77 74 70 70 68 64 60 55 51 47 48 48 49 52 51 51 47 44 45 48 50 51 51 51 47 45 42 37 32 32 30 24 22 23 25 22 21 19 19
79 87 91 83 81 78 77 74 73 67 63 56 52 51 49 54 53 51 49 51 48 43 38 40 45 46 48 46 44 43 43 40 38 36 37 29 28 27 27 20 22 25 24
78 84 92 89 85 89 86 81 77 72 65 59 55 54 52 55 56 50 47 43 40 37 32 31 35 37 38 37 34 33 35 34 31 33 36 35 32 30 34 30 28 31 32
48 76 80 86 97 93 90 83 81 74 64 59 51 50 53 54 55 48 46 40 35 32 30 31 32 34 35 33 30 29 26 25 23 26 35 37 36 34 34 34 36 32 27
32 53 70 85 96 89 87 84 77 66 60 53 46 45 45 48 53 52 50 46 35 38 34 34 34 35 33 33 29 25 23 24 23 28 32 34 37 36 38 38 40 40 37
37 42 51 58 80 90 83 81 69 57 58 57 48 49 45 50 50 57 56 49 41 44 43 40 39 35 34 33 29 27 27 30 31 36 37 38 35 39 41 42 46 47 41
55 48 52 61 64 72 85 79 71 71 67 60 53 58 52 51 50 58 58 53 48 48 52 46 45 35 35 29 33 33 31 34 32 38 40 36 38 42 45 50 42 43 46
42 59 58 58 69 73 79 80 69 65 52 55 70 68 63 54 50 58 59 54 51 55 57 50 46 38 37 33 38 42 37 36 36 38 38 41 46 44 47 42 40 36 44
43 46 64 68 63 86 86 79 76 72 74 85 87 74 71 57 53 60 58 60 53 54 55 55 48 42 38 38 42 37 35 34 36 38 44 49 47 45 37 39 39 38 40
52 47 52 69 75 85 92 90 92 93 92 95 89 79 70 63 59 60 65 61 54 49 45 50 49 44 39 38 41 35 15 21 24 30 33 27 29 33 37 38 38 40 42
65 53 58 54 75 81 84 109 115 110 107 96 93 79 73 56 54 64 58 48 47 39 41 46 46 41 41 43 43 45 46 38 19 11 17 15 22 28 27 30 33 32 34
74 69 57 52 64 72 70 79 96 103 106 103 90 77 57 54 59 60 59 48 42 38 42 42 44 43 42 42 43 41 46 42 41 40 38 30 24 29 29 27 26 23 25
76 76 67 61 61 75 75 71 86 96 103 103 81 68 57 58 57 54 53 45 39 40 41 42 43 37 36 39 37 40 41 38 43 39 37 31 26 22 22 21 20 19 23
Wind_Direction_500mb
170 160 157 154 155 154 153 153 152 151 149 147 144 139 136 133 130 126 123 119 115 110 105 105 105 105 104 107 110 116 132 163 116 153 168 155 150 144 122 112 125 84 93
159 159 157 155 154 154 153 151 149 148 145 143 142 140 138 136 134 129 124 118 112 109 106 104 99 94 96 97 97 100 110 119 119 129 113 112 115 122 181 239 291 254 160
161 158 159 158 155 156 155 152 151 150 149 148 147 147 144 144 142 136 133 128 125 123 118 109 104 100 98 99 103 106 112 116 122 121 106 95 91 81 58 292 286 285 217
164 160 162 160 158 159 159 157 157 157 155 153 153 153 152 152 149 148 147 145 143 143 138 134 133 121 119 117 112 112 120 129 137 137 126 104 79 60 42 22 314 269 261
167 164 163 164 162 163 165 162 164 163 162 162 163 163 164 164 164 165 166 164 161 163 164 159 149 140 136 137 134 130 133 153 174 169 141 135 75 54 39 30 351 275 242
169 168 168 166 167 169 169 168 168 169 170 173 174 175 175 176 178 182 186 188 184 192 203 192 196 206 180 171 147 131 152 182 204 222 214 284 136 51 26 7 352 313 239
172 170 171 171 172 173 174 173 173 176 180 183 184 185 185 188 192 196 200 208 209 214 224 231 241 248 261 242 195 177 190 202 215 234 271 275 245 45 353 348 347 338 263
174 171 175 176 177 177 180 181 179 182 188 192 196 197 198 202 209 212 217 222 225 228 236 240 249 255 265 269 268 258 234 217 228 237 258 261 234 179 349 331 340 342 308
179 175 178 182 182 183 185 188 188 190 196 200 206 212 215 216 222 228 233 235 237 240 244 247 252 257 261 267 269 264 256 248 253 251 243 247 261 237 261 301 324 330 314
182 181 183 186 187 188 190 193 197 198 203 210 215 224 229 232 234 237 243 245 246 246 250 253 254 257 261 264 268 269 266 259 269 269 257 239 262 254 254 275 321 331 312
184 186 189 190 192 193 194 197 201 205 209 214 222 229 235 239 242 248 252 254 255 254 256 257 259 260 261 262 265 266 266 257 265 263 253 222 245 260 258 261 302 322 312
189 192 194 195 196 197 199 203 204 207 212 215 222 231 238 243 248 254 257 257 258 259 261 261 263 263 261 261 263 265 265 258 264 258 230 239 261 262 255 256 288 308 302
196 196 198 200 201 204 205 207 211 211 215 220 226 232 242 247 251 255 259 259 261 264 266 267 269 267 267 267 265 266 265 262 254 242 228 239 263 272 261 253 283 307 303
207 206 206 204 206 211 213 217 220 219 221 224 230 235 243 251 255 259 263 266 267 269 271 274 275 273 271 270 268 267 265 261 255 241 233 241 252 276 264 262 281 302 302
223 218 211 210 212 216 220 221 225 226 228 232 236 242 250 256 258 262 268 269 270 269 271 277 277 275 272 272 271 271 266 259 256 245 240 246 257 272 260 268 305 299 304
237 232 221 217 218 220 222 225 228 230 232 237 242 248 251 257 262 265 267 266 267 270 270 275 277 277 271 267 267 274 272 254 252 245 237 246 259 265 253 263 279 288 291
245 244 236 227 227 223 225 227 229 231 237 240 242 247 251 257 264 268 268 264 268 271 271 274 273 270 261 256 261 271 271 240 244 241 240 259 259 271 259 273 259 261 276
262 252 244 245 239 232 229 229 231 231 229 233 235 249 252 262 268 272 271 271 273 274 273 276 272 270 262 254 257 260 261 245 239 237 256 272 268 261 269 272 272 266 274
268 253 240 242 238 236 233 229 224 223 234 242 241 246 255 264 267 269 274 278 279 278 276 275 270 269 266 256 258 257 259 251 245 240 256 270 272 268 271 275 272 263 264
264 249 245 252 249 237 230 225 225 235 243 244 246 252 257 262 263 264 270 277 281 280 275 271 268 267 269 260 258 262 261 255 249 254 260 259 274 276 274 281 266 254 260
288 246 241 249 251 237 224 223 229 228 241 267 251 252 261 262 261 263 267 273 278 281 281 275 265 260 261 253 256 262 263 256 250 256 260 265 278 279 278 278 266 265 246
314 282 253 243 241 236 233 226 231 239 239 239 245 253 259 258 260 262 267 270 277 276 274 268 258 254 253 245 247 257 259 262 255 258 260 269 270 275 272 273 265 258 248
300 300 288 254 246 233 229 232 236 242 242 237 241 249 251 248 255 263 269 272 268 266 265 265 257 252 249 243 242 234 228 240 256 262 267 270 265 262 268 268 266 262 257
290 292 299 271 254 238 238 240 245 245 238 240 242 246 247 253 259 265 266 265 256 257 262 257 250 247 242 240 238 240 246 253 265 259 263 271 279 271 264 269 271 263 253
293 288 292 293 260 234 244 240 244 239 238 240 242 244 248 255 259 263 262 259 250 254 255 247 242 243 234 234 236 243 245 247 249 257 273 283 284 274 269 271 266 254 244
291 286 282 283 275 247 244 239 237 239 239 240 238 241 245 254 259 265 260 251 246 250 247 244 245 232 227 230 236 247 252 248 253 250 260 273 280 272 276 272 260 246 243
Wind_Speed_850mb
63 61 55 55 54 54 56 56 54 51 48 46 44 44 41 38 35 32 30 28 25 23 21 20 18 17 15 12 10 7 5 2 2 2 4 6 7 7 5 2 2 3 4
73 68 60 59 61 59 60 60 59 57 54 51 48 45 42 38 34 31 28 26 24 22 19 18 17 17 16 15 14 12 8 7 8 7 8 9 9 6 4 3 2 4 4
77 74 67 66 67 65 62 60 58 56 54 50 46 43 40 36 32 29 25 22 20 17 15 15 14 14 14 13 13 12 10 10 12 13 13 13 12 10 6 3 5 5 4
81 80 73 70 70 66 62 60 57 54 52 49 44 38 34 31 28 26 23 20 17 14 13 12 11 11 11 10 10 10 9 11 14 12 11 13 12 12 10 8 5 7 5
84 81 78 73 72 68 64 60 57 53 48 45 41 38 34 30 26 22 20 18 15 12 10 9 7 7 8 7 8 9 9 10 8 7 5 6 8 12 14 11 12 9 9
87 83 80 76 75 71 66 60 55 50 47 43 40 36 32 29 26 22 19 16 14 12 11 8 6 6 5 6 6 5 6 11 12 9 3 4 1 6 11 14 16 10 12
90 85 80 77 77 73 67 60 54 49 45 42 39 36 32 29 26 24 21 19 17 16 13 10 10 9 8 5 3 3 6 12 19 16 13 6 5 3 9 15 17 15 10
90 86 82 79 77 73 67 59 54 48 44 41 37 34 31 29 27 25 24 23 21 19 19 17 16 15 15 12 7 6 7 10 19 22 20 10 7 2 5 12 18 19 12
87 85 84 81 78 74 68 59 52 47 43 39 36 34 32 30 29 28 27 28 26 24 25 23 22 22 22 20 15 14 11 10 14 16 21 17 12 9 6 11 19 22 18
89 84 85 82 80 77 70 61 54 47 43 39 36 35 34 32 33 32 32 33 32 31 30 30 29 29 29 26 24 21 18 13 15 16 18 19 12 10 10 12 16 23 20
86 83 84 82 81 76 70 65 60 52 46 42 39 38 39 39 37 37 37 37 38 37 36 36 35 35 35 33 32 28 25 17 20 19 15 14 11 12 15 15 15 20 20
90 88 86 84 80 76 72 68 64 58 54 49 45 44 42 41 39 42 43 43 42 41 40 43 42 43 43 40 38 36 31 23 23 22 19 15 13 17 18 18 15 17 19
90 88 85 80 76 74 72 68 67 62 58 51 48 46 43 43 45 48 49 49 46 44 44 48 47 50 49 46 43 41 36 31 27 25 25 20 19 26 26 22 18 19 18
84 84 84 82 77 74 70 70 68 64 60 55 51 47 48 48 49 52 51 51 47 44 45 48 50 51 51 51 47 45 42 37 32 32 30 24 22 23 25 22 21 19 19
79 87 91 83 81 78 77 74 73 67 63 56 52 51 49 54 53 51 49 51 48 43 38 40 45 46 48 46 44 43 43 40 38 36 37 29 28 27 27 20 22 25 24
78 84 92 89 85 89 86 81 77 72 65 59 55 54 52 55 56 50 47 43 40 37 32 31 35 37 38 37 34 33 35 34 31 33 36 35 32 30 34 30 28 31 32
48 76 80 86 97 93 90 83 81 74 64 59 51 50 53 54 55 48 46 40 35 32 30 31 32 34 35 33 30 29 26 25 23 26 35 37 36 34 34 34 36 32 27
32 53 70 85 96 89 87 84 77 66 60 53 46 45 45 48 53 52 50 46 35 38 34 34 34 35 33 33 29 25 23 24 23 28 32 34 37 36 38 38 40 40 37
37 42 51 58 80 90 83 81 69 57 58 57 48 49 45 50 50 57 56 49 41 44 43 40 39 35 34 33 29 27 27 30 31 36 37 38 35 39 41 42 46 47 41
55 48 52 61 64 72 85 79 71 71 67 60 53 58 52 51 50 58 58 53 48 48 52 46 45 35 35 29 33 33 31 34 32 38 40 36 38 42 45 50 42 43 46
42 59 58 58 69 73 79 80 69 65 52 55 70 68 63 54 50 58 59 54 51 55 57 50 46 38 37 33 38 42 37 36 36 38 38 41 46 44 47 42 40 36 44
43 46 64 68 63 86 86 79 76 72 74 85 87 74 71 57 53 60 58 60 53 54 55 55 48 42 38 38 42 37 35 34 36 38 44 49 47 45 37 39 39 38 40
52 47 52 69 75 85 92 90 92 93 92 95 89 79 70 63 59 60 65 61 54 49 45 50 49 44 39 38 41 35 15 21 24 30 33 27 29 33 37 38 38 40 42
65 53 58 54 75 81 84 109 115 110 107 96 93 79 73 56 54 64 58 48 47 39 41 46 46 41 41 43 43 45 46 38 19 11 17 15 22 28 27 30 33 32 34
74 69 57 52 64 72 70 79 96 103 106 103 90 77 57 54 59 60 59 48 42 38 42 42 44 43 42 42 43 41 46 42 41 40 38 30 24 29 29 27 26 23 25
76 76 67 61 61 75 75 71 86 96 103 103 81 68 57 58 57 54 53 45 39 40 41 42 43 37 36 39 37 40 41 38 43 39 37 31 26 22 22 21 20 19 23
Wind_Direction_850mb
170 160 157 154 155 154 153 153 152 151 149 147 144 139 136 133 130 126 123 119 115 110 105 105 105 105 104 107 110 116 132 163 116 153 168 155 150 144 122 112 125 84 93
159 159 157 155 154 154 153 151 149 148 145 143 142 140 138 136 134 129 124 118 112 109 106 104 99 94 96 97 97 100 110 119 119 129 113 112 115 122 181 239 291 254 160
161 158 159 158 155 156 155 152 151 150 149 148 147 147 144 144 142 136 133 128 125 123 118 109 104 100 98 99 103 106 112 116 122 121 106 95 91 81 58 292 286 285 217
164 160 162 160 158 159 159 157 157 157 155 153 153 153 152 152 149 148 147 145 143 143 138 134 133 121 119 117 112 112 120 129 137 137 126 104 79 60 42 22 314 269 261
167 164 163 164 162 163 165 162 164 163 162 162 163 163 164 164 164 165 166 164 161 163 164 159 149 140 136 137 134 130 133 153 174 169 141 135 75 54 39 30 351 275 242
169 168 168 166 167 169 169 168 168 169 170 173 174 175 175 176 178 182 186 188 184 192 203 192 196 206 180 171 147 131 152 182 204 222 214 284 136 51 26 7 352 313 239
172 170 171 171 172 173 174 173 173 176 180 183 184 185 185 188 192 196 200 208 209 214 224 231 241 248 261 242 195 177 190 202 215 234 271 275 245 45 353 348 347 338 263
174 171 175 176 177 177 180 181 179 182 188 192 196 197 198 202 209 212 217 222 225 228 236 240 249 255 265 269 268 258 234 217 228 237 258 261 234 179 349 331 340 342 308
179 175 178 182 182 183 185 188 188 190 196 200 206 212 215 216 222 228 233 235 237 240 244 247 252 257 261 267 269 264 256 248 253 251 243 247 261 237 261 301 324 330 314
182 181 183 186 187 188 190 193 197 198 203 210 215 224 229 232 234 237 243 245 246 246 250 253 254 257 261 264 268 269 266 259 269 269 257 239 262 254 254 275 321 331 312
184 186 189 190 192 193 194 197 201 205 209 214 222 229 235 239 242 248 252 254 255 254 256 257 259 260 261 262 265 266 266 257 265 263 253 222 245 260 258 261 302 322 312
189 192 194 195 196 197 199 203 204 207 212 215 222 231 238 243 248 254 257 257 258 259 261 261 263 263 261 261 263 265 265 258 264 258 230 239 261 262 255 256 288 308 302
196 196 198 200 201 204 205 207 211 211 215 220 226 232 242 247 251 255 259 259 261 264 266 267 269 267 267 267 265 266 265 262 254 242 228 239 263 272 261 253 283 307 303
207 206 206 204 206 211 213 217 220 219 221 224 230 235 243 251 255 259 263 266 267 269 271 274 275 273 271 270 268 267 265 261 255 241 233 241 252 276 264 262 281 302 302
223 218 211 210 212 216 220 221 225 226 228 232 236 242 250 256 258 262 268 269 270 269 271 277 277 275 272 272 271 271 266 259 256 245 240 246 257 272 260 268 305 299 304
237 232 221 217 218 220 222 225 228 230 232 237 242 248 251 257 262 265 267 266 267 270 270 275 277 277 271 267 267 274 272 254 252 245 237 246 259 265 253 263 279 288 291
245 244 236 227 227 223 225 227 229 231 237 240 242 247 251 257 264 268 268 264 268 271 271 274 273 270 261 256 261 271 271 240 244 241 240 259 259 271 259 273 259 261 276
262 252 244 245 239 232 229 229 231 231 229 233 235 249 252 262 268 272 271 271 273 274 273 276 272 270 262 254 257 260 261 245 239 237 256 272 268 261 269 272 272 266 274
268 253 240 242 238 236 233 229 224 223 234 242 241 246 255 264 267 269 274 278 279 278 276 275 270 269 266 256 258 257 259 251 245 240 256 270 272 268 271 275 272 263 264
264 249 245 252 249 237 230 225 225 235 243 244 246 252 257 262 263 264 270 277 281 280 275 271 268 267 269 260 258 262 261 255 249 254 260 259 274 276 274 281 266 254 260
288 246 241 249 251 237 224 223 229 228 241 267 251 252 261 262 261 263 267 273 278 281 281 275 265 260 261 253 256 262 263 256 250 256 260 265 278 279 278 278 266 265 246
314 282 253 243 241 236 233 226 231 239 239 239 245 253 259 258 260 262 267 270 277 276 274 268 258 254 253 245 247 257 259 262 255 258 260 269 270 275 272 273 265 258 248
300 300 288 254 246 233 229 232 236 242 242 237 241 249 251 248 255 263 269 272 268 266 265 265 257 252 249 243 242 234 228 240 256 262 267 270 265 262 268 268 266 262 257
290 292 299 271 254 238 238 240 245 245 238 240 242 246 247 253 259 265 266 265 256 257 262 257 250 247 242 240 238 240 246 253 265 259 263 271 279 271 264 269 271 263 253
293 288 292 293 260 234 244 240 244 239 238 240 242 244 248 255 259 263 262 259 250 254 255 247 242 243 234 234 236 243 245 247 249 257 273 283 284 274 269 271 266 254 244
291 286 282 283 275 247 244 239 237 239 239 240 238 241 245 254 259 265 260 251 246 250 247 244 245 232 227 230 236 247 252 248 253 250 260 273 280 272 276 272 260 246 243